WB3IGR Weather Reports


time (UTC)temp
F
wind
direction
speed
knots
gust
knots
rain 1hr
in
rain 24hr
in
rain mn
in
humidity
%
barometer
mb
20260510043555 50 228 0.9 1.7 0.00 0.00 0.00 99 1012.4
20260510043051 50 99 0.0 0.9 0.00 0.00 0.00 99 1012.2
20260510042545 49 175 0.0 0.9 0.00 0.00 0.00 99 1012.4
20260510042040 49 100 0.0 0.0 0.00 0.00 0.00 99 1012.3
20260510041537 50 62 0.0 0.9 0.00 0.00 0.00 99 1012.4
20260510041035 50 170 0.0 0.9 0.00 0.00 0.00 99 1012.3
20260510040531 50 118 0.0 0.9 0.00 0.00 0.00 99 1012.5
20260510040027 50 337 0.9 0.9 0.00 0.18 0.18 99 1012.5
20260510035524 50 58 0.0 0.0 0.00 0.18 0.18 99 1012.4
20260510035023 50 161 0.9 1.7 0.00 0.18 0.18 99 1012.3
20260510034522 50 82 0.9 0.9 0.00 0.18 0.18 99 1012.5
20260510034018 50 260 0.9 0.9 0.00 0.18 0.18 99 1012.5
20260510033514 50 200 0.0 0.9 0.00 0.18 0.18 99 1012.4
20260510033012 50 148 0.0 0.9 0.00 0.18 0.18 99 1012.4
20260510032509 50 177 0.0 0.9 0.00 0.18 0.18 99 1012.3
20260510032009 50 132 0.0 0.0 0.00 0.18 0.18 99 1012.2
20260510031504 51 173 0.0 0.9 0.00 0.18 0.18 99 1012.6
20260510031001 51 197 0.0 0.9 0.00 0.18 0.18 99 1012.5
20260510030456 50 119 0.0 0.0 0.00 0.18 0.18 99 1012.5
20260510025953 51 149 0.0 0.9 0.00 0.18 0.18 99 1012.4
20260510025450 51 169 0.0 0.0 0.00 0.18 0.18 99 1012.4
20260510024948 51 173 1.7 1.7 0.00 0.18 0.18 99 1012.4
20260510024444 51 215 0.0 1.7 0.00 0.18 0.18 99 1012.4
20260510023940 51 155 0.0 0.0 0.00 0.18 0.18 99 1012.2
20260510023437 52 102 0.9 0.9 0.00 0.18 0.18 99 1012.5
20260510022934 52 234 0.9 1.7 0.00 0.18 0.18 99 1012.6
20260510022433 52 222 0.9 1.7 0.00 0.18 0.18 99 1012.3
20260510021932 53 213 0.9 0.9 0.00 0.18 0.18 99 1012.2
20260510021430 53 142 1.7 1.7 0.00 0.18 0.18 99 1012.2
20260510020926 52 160 1.7 1.7 0.00 0.18 0.18 99 1012.3
20260510020421 53 162 1.7 1.7 0.00 0.18 0.18 99 1012.1
20260510015917 53 173 1.7 1.7 0.00 0.18 0.18 99 1012.0
20260510015413 53 187 0.0 0.9 0.00 0.18 0.18 99 1011.9
20260510014908 53 118 0.9 0.9 0.00 0.18 0.18 99 1012.0
20260510014406 53 184 0.0 0.9 0.00 0.18 0.18 99 1012.0
20260510013903 53 175 0.9 1.7 0.00 0.18 0.18 99 1011.7
20260510013357 53 184 0.9 1.7 0.00 0.18 0.18 99 1011.9
20260510012852 53 148 0.9 0.9 0.00 0.18 0.18 99 1011.9
20260510012348 53 181 0.0 0.9 0.00 0.18 0.18 98 1011.8
20260510011843 54 177 0.9 0.9 0.00 0.18 0.18 98 1011.7
20260510011338 54 177 1.7 1.7 0.00 0.18 0.18 97 1011.9
20260510010835 54 179 0.0 0.9 0.00 0.18 0.18 97 1011.6
20260510010332 55 148 0.0 0.9 0.00 0.18 0.18 96 1011.7
20260510005828 55 164 0.0 0.9 0.00 0.18 0.18 96 1011.8
20260510005325 55 194 0.0 0.0 0.00 0.18 0.18 96 1011.6
20260510004823 55 186 0.0 0.9 0.00 0.18 0.18 95 1011.6
20260510004320 55 177 0.0 0.9 0.00 0.18 0.18 95 1011.6
20260510003818 56 157 0.0 1.7 0.00 0.18 0.18 94 1011.6
20260510003315 56 222 0.9 1.7 0.00 0.18 0.18 93 1011.6
20260510002813 56 212 0.9 0.9 0.00 0.18 0.18 91 1011.4
20260510002311 57 117 0.9 1.7 0.00 0.18 0.18 90 1011.2
20260510001807 57 130 0.9 0.9 0.00 0.18 0.18 90 1011.3
20260510001305 58 134 0.0 0.9 0.00 0.18 0.18 88 1011.3
20260510000801 58 169 0.9 1.7 0.00 0.18 0.18 87 1011.1
20260510000259 58 148 0.0 0.0 0.00 0.18 0.18 85 1011.2
20260509235756 59 164 0.9 0.9 0.00 0.18 0.18 84 1011.2
20260509235252 60 148 0.0 0.9 0.00 0.18 0.18 82 1011.0
20260509234747 60 170 0.0 0.9 0.00 0.18 0.18 82 1011.1
20260509234245 60 140 0.9 1.7 0.00 0.18 0.18 81 1010.9
20260509233743 61 154 0.0 1.7 0.00 0.18 0.18 80 1010.8
20260509233240 62 143 0.0 0.9 0.00 0.18 0.18 78 1010.8
20260509232736 61 147 0.9 1.7 0.00 0.18 0.18 78 1010.8
20260509232233 62 176 0.9 2.6 0.00 0.18 0.18 78 1011.0
20260509231729 62 187 0.9 1.7 0.00 0.18 0.18 76 1011.0
20260509231227 63 118 1.7 2.6 0.00 0.18 0.18 74 1010.8
20260509230724 63 213 1.7 2.6 0.00 0.18 0.18 73 1011.1
20260509230221 65 134 1.7 1.7 0.00 0.18 0.18 72 1011.0
20260509225716 65 263 0.0 1.7 0.00 0.18 0.18 72 1011.1
20260509225212 65 227 0.0 1.7 0.00 0.18 0.18 73 1010.9
20260509224708 65 267 0.9 2.6 0.00 0.18 0.18 72 1010.8
20260509224205 65 303 0.0 1.7 0.00 0.18 0.18 71 1011.0
20260509223702 65 327 0.9 0.9 0.00 0.18 0.18 69 1011.1
20260509223154 64 299 1.7 2.6 0.00 0.18 0.18 69 1010.8
20260509222651 64 320 0.9 3.5 0.00 0.18 0.18 70 1010.8
20260509222146 65 11 1.7 1.7 0.00 0.18 0.18 68 1010.9
20260509221642 65 334 0.9 3.5 0.00 0.18 0.18 69 1010.7
20260509221138 66 306 1.7 2.6 0.00 0.18 0.18 70 1010.7
20260509220634 65 333 0.9 0.9 0.00 0.18 0.18 72 1010.9
20260509220130 62 238 0.9 3.5 0.00 0.18 0.18 76 1011.0
20260509215627 64 224 3.5 3.5 0.00 0.18 0.18 74 1011.1
20260509215123 62 289 0.9 1.7 0.00 0.18 0.18 79 1011.1
20260509214621 62 262 0.9 5.2 0.00 0.18 0.18 79 1011.1
20260509214117 62 221 1.7 5.2 0.00 0.18 0.18 77 1011.2
20260509213613 62 242 1.7 3.5 0.00 0.18 0.18 80 1011.3
20260509213109 62 198 2.6 2.6 0.00 0.18 0.18 79 1011.5
20260509212607 62 270 0.9 2.6 0.00 0.18 0.18 78 1011.7
20260509212104 61 262 0.0 1.7 0.00 0.18 0.18 79 1011.6
20260509211600 60 314 1.7 2.6 0.00 0.18 0.18 81 1011.8
20260509211057 60 316 1.7 1.7 0.00 0.18 0.18 81 1011.7
20260509210553 60 286 0.9 0.9 0.00 0.18 0.18 82 1011.3
20260509210050 60 246 0.0 0.9 0.00 0.18 0.18 81 1011.4
20260509205544 60 178 0.0 0.9 0.00 0.18 0.18 81 1011.3
20260509205040 61 76 0.0 0.0 0.00 0.18 0.18 81 1011.3
20260509204536 60 36 0.0 0.9 0.00 0.18 0.18 82 1011.4
20260509204032 60 304 0.9 1.7 0.00 0.18 0.18 82 1011.4
20260509203528 60 248 0.0 0.9 0.00 0.18 0.18 82 1011.6
20260509203027 60 338 0.0 0.9 0.00 0.18 0.18 81 1011.7
20260509202526 60 343 1.7 2.6 0.00 0.18 0.18 81 1011.6
20260509202022 60 241 0.0 0.9 0.00 0.18 0.18 81 1011.7
20260509201517 60 357 2.6 3.5 0.00 0.18 0.18 80 1011.7
20260509201015 61 304 0.9 2.6 0.00 0.18 0.18 80 1011.9
20260509200510 61 22 1.7 3.5 0.00 0.18 0.18 81 1011.8
20260509200006 62 331 0.9 3.5 0.00 0.18 0.18 80 1011.8
20260509195501 64 323 2.6 2.6 0.00 0.18 0.18 78 1012.1
20260509194956 63 311 2.6 2.6 0.00 0.18 0.18 78 1012.0
20260509194452 64 302 0.9 5.2 0.00 0.18 0.18 77 1012.1
20260509193949 63 297 1.7 6.1 0.00 0.18 0.18 77 1012.0
20260509193449 61 305 1.7 2.6 0.00 0.18 0.18 78 1012.0
20260509192945 61 299 3.5 3.5 0.00 0.18 0.18 77 1012.1
20260509192442 61 298 3.5 6.1 0.00 0.18 0.18 78 1012.1
20260509191937 63 359 3.5 3.5 0.00 0.18 0.18 79 1012.2
20260509191432 62 38 0.9 2.6 0.00 0.18 0.18 83 1012.1
20260509190929 62 355 0.9 0.9 0.00 0.18 0.18 84 1012.1
20260509190426 61 269 0.0 2.6 0.00 0.18 0.18 86 1012.3
20260509185924 60 270 0.9 1.7 0.00 0.18 0.18 90 1012.3
20260509185421 60 241 1.7 2.6 0.00 0.18 0.18 93 1012.5
20260509184917 58 216 0.0 1.7 0.00 0.18 0.18 94 1012.4
20260509184415 59 126 1.7 2.6 0.00 0.18 0.18 94 1012.5
20260509183911 57 157 0.0 0.9 0.00 0.18 0.18 98 1012.4
20260509183406 56 85 1.7 2.6 0.00 0.18 0.18 96 1012.5
20260509182902 55 54 0.0 1.7 0.00 0.18 0.18 97 1012.7
20260509182359 55 151 1.7 2.6 0.00 0.18 0.18 97 1012.8
20260509181857 54 177 0.0 0.9 0.00 0.18 0.18 97 1012.9
20260509181354 54 184 0.0 0.9 0.07 0.18 0.18 98 1012.9
20260509180851 54 180 0.9 0.9 0.07 0.18 0.18 98 1013.0
20260509180346 54 298 0.9 1.7 0.00 0.17 0.17 98 1012.9
20260509175844 54 244 0.9 1.7 0.00 0.17 0.17 98 1013.1
20260509175340 54 233 0.0 0.9 0.05 0.17 0.17 98 1013.2
20260509174836 54 243 0.9 1.7 0.05 0.17 0.17 98 1012.9
20260509174332 54 320 0.9 0.9 0.00 0.16 0.16 98 1013.2
20260509173828 53 234 1.7 2.6 0.00 0.16 0.16 97 1013.1
20260509173323 53 233 1.7 1.7 0.07 0.16 0.16 97 1013.1
20260509172820 54 186 1.7 2.6 0.00 0.15 0.15 97 1013.0
20260509172317 54 218 0.9 0.9 0.00 0.15 0.15 97 1013.0
20260509171813 54 221 0.9 0.9 0.00 0.15 0.15 97 1012.9
20260509171308 54 260 0.0 0.0 0.00 0.15 0.15 97 1012.9
20260509170805 53 281 0.0 1.7 0.00 0.15 0.15 97 1013.0
20260509170301 53 229 0.9 1.7 0.05 0.15 0.15 97 1012.9
20260509165800 53 225 0.9 1.7 0.05 0.15 0.15 97 1013.1
20260509165255 53 252 0.0 1.7 0.00 0.14 0.14 98 1013.3
20260509164751 53 271 0.0 0.9 0.00 0.14 0.14 98 1013.1
20260509164242 53 258 0.0 1.7 0.00 0.14 0.14 97 1013.2
20260509163744 54 215 0.0 0.0 0.07 0.14 0.14 97 1012.9
20260509163235 53 220 0.0 0.0 0.07 0.14 0.14 97 1013.0
20260509162734 53 262 0.0 0.9 0.00 0.13 0.13 97 1012.9
20260509162228 53 319 0.9 0.9 0.12 0.13 0.13 97 1012.9
20260509161724 53 103 0.0 0.0 0.07 0.12 0.12 96 1013.0
20260509161220 53 190 0.9 0.9 0.12 0.11 0.11 96 1013.1
20260509160715 54 5 0.0 0.0 0.19 0.10 0.10 96 1013.3
20260509160212 54 281 0.9 1.7 0.24 0.09 0.09 95 1013.6
20260509155707 54 274 0.9 1.7 0.19 0.07 0.07 94 1013.9
20260509155204 54 255 0.9 1.7 0.12 0.05 0.05 93 1013.5
20260509154700 55 260 0.9 0.9 0.12 0.04 0.04 92 1013.6
20260509154157 55 320 1.7 1.7 0.07 0.03 0.03 90 1013.6
20260509153654 55 266 1.7 2.6 0.05 0.02 0.02 90 1013.7
20260509153151 55 253 1.7 1.7 0.05 0.02 0.02 89 1013.8
20260509152646 56 227 1.7 2.6 0.00 0.01 0.01 87 1013.8
20260509152144 56 255 1.7 3.5 0.07 0.01 0.01 86 1013.7
20260509151640 56 224 1.7 2.6 0.07 0.01 0.01 83 1013.7
20260509151137 56 35 1.7 2.6 0.00 0.00 0.00 82 1013.7
20260509150636 57 235 3.5 6.1 0.00 0.00 0.00 80 1013.8
20260509150134 57 210 2.6 3.5 0.00 0.00 0.00 79 1013.8
20260509145630 57 309 0.9 6.1 0.00 0.00 0.00 79 1013.6
20260509145125 58 215 4.3 6.1 0.00 0.00 0.00 77 1013.6
20260509144621 58 246 3.5 3.5 0.00 0.00 0.00 76 1013.7
20260509144119 57 292 0.9 6.1 0.00 0.00 0.00 78 1013.7
20260509143616 57 241 3.5 5.2 0.00 0.00 0.00 76 1013.6
20260509143114 57 226 2.6 3.5 0.00 0.00 0.00 76 1013.4
20260509142608 57 298 1.7 5.2 0.00 0.00 0.00 75 1013.3
20260509142105 57 226 1.7 5.2 0.00 0.00 0.00 75 1013.3
20260509141601 57 269 1.7 3.5 0.00 0.00 0.00 78 1013.3
20260509141058 57 262 2.6 5.2 0.00 0.00 0.00 76 1013.3
20260509140555 57 271 1.7 3.5 0.00 0.00 0.00 79 1013.1
20260509140053 57 211 1.7 5.2 0.00 0.00 0.00 79 1013.1
20260509135550 57 263 1.7 5.2 0.00 0.00 0.00 78 1012.9
20260509135047 58 237 0.9 1.7 0.00 0.00 0.00 79 1012.6
20260509134544 57 261 1.7 2.6 0.00 0.00 0.00 78 1012.7
20260509134042 57 318 0.9 1.7 0.00 0.00 0.00 77 1012.6
20260509133538 57 298 0.9 3.5 0.00 0.00 0.00 78 1012.9
20260509133036 56 269 0.0 5.2 0.00 0.00 0.00 78 1012.9
20260509132534 56 302 2.6 3.5 0.00 0.00 0.00 77 1013.0
20260509132032 57 226 2.6 3.5 0.00 0.00 0.00 77 1013.1
20260509131528 57 245 1.7 3.5 0.00 0.00 0.00 75 1012.9
20260509131025 57 237 2.6 7.0 0.00 0.00 0.00 75 1013.0
20260509130520 57 252 1.7 2.6 0.00 0.00 0.00 75 1013.0
20260509130017 57 264 2.6 5.2 0.00 0.00 0.00 75 1012.8
20260509125514 57 203 2.6 5.2 0.00 0.00 0.00 75 1013.0
20260509125010 57 228 3.5 5.2 0.00 0.00 0.00 74 1012.8
20260509124507 56 178 3.5 6.1 0.00 0.00 0.00 74 1012.9
20260509124004 56 289 0.9 1.7 0.00 0.00 0.00 82 1013.0
20260509123502 55 334 2.6 2.6 0.00 0.00 0.00 85 1012.9
20260509122958 55 18 0.9 1.7 0.00 0.00 0.00 85 1012.8
20260509122455 55 76 0.0 0.9 0.00 0.00 0.00 86 1012.6
20260509121951 54 0 0.9 0.9 0.00 0.00 0.00 86 1012.7
20260509121448 54 31 0.9 0.9 0.00 0.00 0.00 87 1012.7
20260509120946 53 41 0.0 0.9 0.00 0.00 0.00 88 1012.7
20260509120444 53 356 1.7 1.7 0.00 0.00 0.00 88 1012.6
20260509115942 53 92 0.0 0.9 0.00 0.00 0.00 89 1013.0
20260509115439 53 51 0.0 1.7 0.00 0.00 0.00 89 1013.0
20260509114936 52 82 1.7 1.7 0.00 0.00 0.00 89 1012.9
20260509114435 52 123 0.0 0.0 0.00 0.00 0.00 89 1012.8
20260509113934 52 72 0.0 0.9 0.00 0.00 0.00 89 1012.7
20260509113431 52 27 0.9 0.9 0.00 0.00 0.00 89 1012.7
20260509112927 52 36 0.9 0.9 0.00 0.00 0.00 89 1012.6
20260509112425 52 122 0.9 0.9 0.00 0.00 0.00 89 1012.8
20260509111921 51 169 0.0 0.0 0.00 0.00 0.00 89 1012.9
20260509111419 51 61 0.0 0.0 0.00 0.00 0.00 90 1012.9
20260509110916 51 28 0.0 0.9 0.00 0.00 0.00 90 1012.6
20260509110411 51 349 0.9 0.9 0.00 0.00 0.00 90 1012.6
20260509105910 51 33 0.0 0.9 0.00 0.00 0.00 90 1012.6
20260509105408 51 123 0.0 0.9 0.00 0.00 0.00 90 1012.4
20260509104905 51 9 0.9 1.7 0.00 0.00 0.00 89 1012.4
20260509104402 51 0 0.9 0.9 0.00 0.00 0.00 89 1012.6
20260509103859 51 225 0.0 1.7 0.00 0.00 0.00 89 1012.6
20260509103356 51 4 0.0 0.9 0.00 0.00 0.00 88 1012.3
20260509102855 51 357 0.9 1.7 0.00 0.00 0.00 89 1011.9
20260509102352 51 45 0.0 0.9 0.00 0.00 0.00 89 1012.2
20260509101847 50 109 0.9 0.9 0.00 0.00 0.00 90 1012.2
20260509101344 50 165 0.9 0.9 0.00 0.00 0.00 90 1012.0
20260509100842 50 125 0.0 0.9 0.00 0.00 0.00 90 1012.3
20260509100339 50 328 0.9 0.9 0.00 0.00 0.00 90 1012.3
20260509095836 50 72 0.0 0.9 0.00 0.00 0.00 90 1012.1
20260509095333 50 149 0.0 0.9 0.00 0.00 0.00 90 1012.1
20260509094830 50 135 0.0 0.0 0.00 0.00 0.00 89 1012.3
20260509094326 50 164 0.0 0.0 0.00 0.00 0.00 89 1012.2
20260509093824 50 180 0.0 0.9 0.00 0.00 0.00 89 1012.3
20260509093321 51 184 0.9 0.9 0.00 0.00 0.00 88 1012.5
20260509092820 50 105 0.0 0.9 0.00 0.00 0.00 88 1012.4
20260509092317 50 88 0.9 0.9 0.00 0.00 0.00 89 1012.3
20260509091815 50 121 0.0 0.0 0.00 0.00 0.00 88 1012.5
20260509091312 50 191 0.9 0.9 0.00 0.00 0.00 88 1012.5
20260509090809 50 159 0.0 0.9 0.00 0.00 0.00 88 1012.6
20260509090306 50 92 0.9 1.7 0.00 0.00 0.00 88 1012.6
20260509085803 50 74 0.0 0.9 0.00 0.00 0.00 88 1012.7
20260509085301 50 95 0.0 0.0 0.00 0.00 0.00 89 1012.6
20260509084757 50 49 0.9 0.9 0.00 0.00 0.00 89 1012.5
20260509084254 50 344 0.9 0.9 0.00 0.00 0.00 89 1012.7
20260509083752 51 156 0.0 1.7 0.00 0.00 0.00 88 1012.7
20260509083248 51 194 0.0 1.7 0.00 0.00 0.00 86 1012.6
20260509082745 51 323 0.9 1.7 0.00 0.00 0.00 85 1012.9
20260509082241 52 86 0.0 2.6 0.00 0.00 0.00 85 1013.0
20260509081739 52 133 0.9 0.9 0.00 0.00 0.00 84 1012.7
20260509081236 52 201 0.9 0.9 0.00 0.00 0.00 83 1012.9
20260509080734 51 120 2.6 3.5 0.00 0.00 0.00 84 1012.9
20260509080231 50 160 2.6 3.5 0.00 0.00 0.00 86 1012.7
20260509075729 49 107 0.0 0.9 0.00 0.00 0.00 86 1013.1
20260509075227 49 112 0.0 0.9 0.00 0.00 0.00 87 1013.0
20260509074723 49 141 0.9 1.7 0.00 0.00 0.00 87 1012.9
20260509074221 49 146 0.0 0.0 0.00 0.00 0.00 87 1013.1
20260509073717 49 81 0.0 0.9 0.00 0.00 0.00 86 1013.1
20260509073214 49 145 0.0 1.7 0.00 0.00 0.00 85 1013.1
20260509072710 49 129 0.0 0.9 0.00 0.00 0.00 85 1013.0
20260509072207 50 105 0.0 0.0 0.00 0.00 0.00 83 1013.3
20260509071703 50 151 0.9 1.7 0.00 0.00 0.00 83 1013.2
20260509071201 50 132 0.9 0.9 0.00 0.00 0.00 83 1013.1
20260509070658 50 157 0.0 0.0 0.00 0.00 0.00 83 1013.2
20260509070154 50 136 0.0 1.7 0.00 0.00 0.00 83 1013.0
20260509065650 50 146 0.0 0.9 0.00 0.00 0.00 83 1013.1
20260509065147 50 150 0.0 0.0 0.00 0.00 0.00 83 1013.2
20260509064644 51 196 0.0 0.9 0.00 0.00 0.00 83 1013.1
20260509064141 51 112 1.7 1.7 0.00 0.00 0.00 83 1013.0
20260509063638 51 104 0.0 0.9 0.00 0.00 0.00 83 1013.2
20260509063135 51 112 0.0 0.9 0.00 0.00 0.00 83 1013.0
20260509062632 52 87 0.0 0.9 0.00 0.00 0.00 82 1013.0
20260509062129 52 57 0.9 1.7 0.00 0.00 0.00 83 1012.6
20260509061626 52 33 0.9 0.9 0.00 0.00 0.00 83 1013.0
20260509061123 53 39 0.9 1.7 0.00 0.00 0.00 79 1013.2
20260509060621 54 354 0.9 0.9 0.00 0.00 0.00 73 1013.2
20260509060116 53 142 1.7 2.6 0.00 0.00 0.00 74 1013.1
20260509055612 51 112 0.9 0.9 0.00 0.00 0.00 83 1013.4
20260509055108 52 119 0.0 0.9 0.00 0.00 0.00 83 1013.5
20260509054605 51 112 0.0 0.0 0.00 0.00 0.00 83 1013.7
20260509054103 51 114 0.0 0.0 0.00 0.00 0.00 83 1013.5
20260509053601 51 95 0.0 0.9 0.00 0.00 0.00 83 1013.9
20260509053058 52 134 0.0 0.0 0.00 0.00 0.00 82 1013.6
20260509052556 52 183 0.9 0.9 0.00 0.00 0.00 80 1013.7
20260509052053 53 40 0.9 0.9 0.00 0.00 0.00 76 1013.9
20260509051551 53 103 0.0 0.9 0.00 0.00 0.00 72 1013.8
20260509051048 53 150 0.9 0.9 0.00 0.00 0.00 77 1013.7
20260509050545 53 158 1.7 2.6 0.00 0.00 0.00 77 1013.7
20260509050041 53 145 0.9 1.7 0.00 0.00 0.00 78 1013.7
20260509045539 53 123 0.9 1.7 0.00 0.00 0.00 78 1013.8
20260509045035 53 184 1.7 1.7 0.00 0.00 0.00 77 1013.9
20260509044532 52 178 0.9 1.7 0.00 0.00 0.00 82 1013.9
20260509044024 52 160 0.9 0.9 0.00 0.00 0.00 82 1014.1